Regional Weather Roundup
Issued by NWS

Home | Current Version | Previous Version | Text Only | Print | Product List | Glossary Off
Versions: 1 2 3 4 5 6 7 8 9 10 11 12 13 14 15 16 17 18 19 20 21 22 23 24 25 26 27 28 29 30 31 32 33 34 35 36 37 38 39 40 41 42 43 44 45 46 47 48 49 50

000
ASUS43 KMKX 231020
RWRWI

WISCONSIN REGIONAL WEATHER ROUNDUP
NATIONAL WEATHER SERVICE MILWAUKEE/SULLIVAN WI
400 AM CST MON JAN 23 2017

NOTE: "FAIR" INDICATES FEW OR NO CLOUDS BELOW 12,000 FEET WITH NO
SIGNIFICANT WEATHER AND/OR OBSTRUCTIONS TO VISIBILITY.

WIZ001-002-006>008-014>016-023>028-231100-
NORTHWEST WISCONSIN

CITY           SKY/WX    TMP DP  RH WIND       PRES   REMARKS
SUPERIOR ARPT  CLOUDY    35  35 100 SW5       29.78R WCI  31
ASHLAND        FOG       35  34  96 SW5       29.77S VSB 1/2 WCI  31
HAYWARD        FOG       35  34  96 CALM      29.76S VSB 1/2
SIREN          FOG       34  34  99 W3        29.78F VSB 3/4
CUMBERLAND     FOG       32  32 100 W6        29.77F VSB 1/2 WCI  26
RICE LAKE      FOG       34  34 100 W5        29.78F VSB<1/4 WCI  30
CHETEK         CLOUDY    34  34 100 W3        29.77S FOG
LADYSMITH      FOG       34  34  99 CALM      29.77S VSB 1/4
EAU CLAIRE     FOG       34  34 100 W6        29.78S VSB 1/2 WCI  29
MENOMONIE        N/A    N/A N/A N/A MISG        N/A
NEW RICHMOND   CLOUDY    33  33 100 W6        29.79F FOG     WCI  27
OSCEOLA        CLOUDY    33  33 100 W6        29.82F FOG     WCI  28
$$

WIZ003>005-009-010-017-018-231100-
NORTH CENTRAL WISCONSIN

CITY           SKY/WX    TMP DP  RH WIND       PRES   REMARKS
MANITOWISH WTR CLOUDY    32  32 100 CALM      29.73S FOG
ARBOR VITAE    CLOUDY    34  33  97 CALM      29.73S
WOODRUFF       CLOUDY    34  33  97 CALM      29.73S
RHINELANDER    CLOUDY    34  33  96 NW6       29.73S WCI  29
EAGLE RIVER    CLOUDY    32  32 100 W6        29.72S WCI  26
LAND O LAKES   FOG       33  33 100 W3        29.74S VSB 1
PHILLIPS       CLOUDY    32  32 100 CALM      29.74F FOG
TOMAHAWK       CLOUDY    32  32  99 NW3       29.73F
MEDFORD        FOG       32  32 100 W5        29.74S VSB 1/2 WCI  27
MERRILL        CLOUDY    34  34 100 CALM        N/A
$$

WIZ029-030-035-036-043>047-231100-
CENTRAL WISCONSIN

CITY           SKY/WX    TMP DP  RH WIND       PRES   REMARKS
WAUSAU         CLOUDY    34  33  96 NW6       29.72S WCI  29
MOSINEE        CLOUDY    32  32 100 NW5       29.75S WCI  27
MARSHFIELD     CLOUDY    33  32  96 NW7       29.73S FOG     WCI  27
STEVENS POINT  CLOUDY    33  33 100 CALM      29.75R
WAUPACA        CLOUDY    37  37  97 CALM      29.74S FOG
WAUTOMA        CLOUDY    35  34  96 NW6       29.75S WCI  30
WISC RAPIDS    CLOUDY    34  34 100 NW6       29.76S FOG     WCI  29
CAMP DOUGLAS   FOG       36  34  93 NW5       29.76S VSB 1   WCI  32
$$

WIZ011>013-019>022-031-037>040-048>050-231100-
NORTHEAST WISCONSIN

CITY           SKY/WX    TMP DP  RH WIND       PRES   REMARKS
ANTIGO         CLOUDY    32  32 100 NW3       29.72S FOG
SHAWANO        CLOUDY    37  36  94 CALM      29.73F
OCONTO         CLOUDY    36  35  99 CALM      29.72S
STURGEON BAY   FOG       35  35 100 NW5       29.72S VSB 1/2 WCI  31
GREEN BAY      CLOUDY    37  37 100 NW5       29.73R FOG     WCI  33
MANITOWOC      CLOUDY    36  36 100 MISG      29.72S FOG
APPLETON       FOG       34  34 100 NW7       29.71S VSB 1/2 WCI  28
CLINTONVILLE   CLOUDY    36  34  93 NW6       29.73S WCI  31
OSHKOSH        CLOUDY    35  35 100 NW6       29.72F FOG     WCI  30
$$

WIZ032>034-041-042-053>061-231100-
SOUTHWEST WISCONSIN

CITY           SKY/WX    TMP DP  RH WIND       PRES   REMARKS
LA CROSSE      CLOUDY    37  34  89 NW7       29.79F FOG     WCI  32
SPARTA         FOG       33  33 100 W5        29.78F VSB 3/4 WCI  29
VIROQUA        CLOUDY    34  34 100 NW7       29.76F VSB 1/4 WCI  28
BOSCOBEL       CLOUDY    37  35  92 CALM      29.79S
PRAIRIE DU CHI CLOUDY    35  34  95 NW5       29.79S FOG     WCI  31
PLATTEVILLE    CLOUDY    35  35 100 NW8       29.77S WCI  29
$$

WIZ056-057-062-063-064-067-068-231100-
SOUTH CENTRAL WISCONSIN

CITY           SKY/WX    TMP DP  RH WIND       PRES   REMARKS
REEDSBURG      CLOUDY    35  35 100 CALM      29.75F FOG
BARABOO/DELLS  CLOUDY    34  34  99 W3        29.75S FOG
LONE ROCK      CLOUDY    37  34  89 W7        29.77F WCI  32
MINERAL POINT  CLOUDY    36  36 100 NW6       29.75F FOG     WCI  31
MADISON        CLOUDY    36  34  92 NW8       29.75S WCI  30
MIDDLETON      CLOUDY    37  37 100 W8        29.74F WCI  30
WATERTOWN      CLOUDY    35  35 100 NW6       29.72F FOG     WCI  30
MONROE         CLOUDY    36  34  93 NW6       29.74S FOG     WCI  31
JANESVILLE     CLOUDY    36  36 100 NW3       29.73S FOG
$$

WIZ051-052-058>065-066-070>072-231100-
SOUTHEAST WISCONSIN

CITY           SKY/WX    TMP DP  RH WIND       PRES   REMARKS
MILWAUKEE      CLOUDY    39  35  86 NW7G17    29.71S WCI  34
WAUKESHA       CLOUDY    34  34 100 NW5       29.73S FOG     WCI  30
MILWAUKEE/TIMM CLOUDY    36  34  93 NW6       29.73S FOG     WCI  31
RACINE         CLOUDY    38  35  89 N6        29.72S WCI  33
KENOSHA        CLOUDY    37  35  92 NW6       29.71S FOG     WCI  32
FOND DU LAC    LGT SNOW  36  33  89 NW7       29.72S VSB 1   WCI  30
SHEBOYGAN      CLOUDY    36  35  96 NW3       29.72R FOG
WEST BEND      CLOUDY    34  34 100 NW7       29.71S FOG     WCI  28
JUNEAU         FOG       34  34  99 NW5       29.74S VSB 3/4 WCI  30
$$

LSZ147-162-231100-
LAKE SUPERIOR

STATION/POSITION TIME  TEMP    WIND        PRES    WAVE
                       AIR SEA DIR/SP/G            HT/PER
                 (UTC) (F)     (DEG/KT/KT) (MB)    (FT/S)
DEVILS ISLAND    1000   34     210/  7/  7 1008.5F
PORT WING        0940   35     190/  2/  4 1008.1S
SAXON HARBOR     0930   34     210/  3/  3 1008.1R
$$

LMZ867-665-643>646-231100-
LAKE MICHIGAN

STATION/POSITION TIME  TEMP    WIND        PRES    WAVE
                       AIR SEA DIR/SP/G            HT/PER
                 (UTC) (F)     (DEG/KT/KT) (MB)    (FT/S)
NORTHPORT PIER   0940   35     300/  6/  8 1006.1F
SISTER BAY       0920   33        CALM       N/A
KEWAUNEE LAKESHO 0954   36     310/  3/  5 1005.9S
SHEBOYGAN LAKESH 1000   37     310/  8/  9 1006.5R
PORT WASHINGTON  0930   38     300/  5/  8 1007.5S
KENOSHA   LAKESH 1000   38     340/  8/  9 1006.4
$$

TC  - TEMPERATURE IN CELSIUS
VSB - VISIBILITY IN STATUTE MILES
WCI - WIND CHILL INDEX
HX  - HEAT INDEX





USA.gov is the U.S. government's official web portal to all federal, state and local government web resources and services.